Radiation Dose at Monitoring Post of Fukushima Daini Nuclear Power Station
Date,Time,MP-1(microSv/h),MP-2(microSv/h),MP-3(microSv/h),MP-4(microSv/h),MP-5(microSv/h),MP-6(microSv/h),MP-7(microSv/h),Wind Direction,Wind Velocity(m/s),Rain
2016/07/09,00:00,0.410,0.243,0.421,0.384,0.368,0.198,0.168,north,0.8,Yes
2016/07/09,00:10,0.406,0.245,0.423,0.389,0.373,0.199,0.169,north,1.5,Yes
2016/07/09,00:20,0.411,0.245,0.424,0.387,0.373,0.198,0.170,north,1.6,Yes
2016/07/09,00:30,0.410,0.244,0.423,0.387,0.371,0.199,0.170,north,1.4,Yes
2016/07/09,00:40,0.408,0.246,0.425,0.390,0.373,0.199,0.171,west,1.3,Yes
2016/07/09,00:50,0.412,0.246,0.421,0.386,0.372,0.198,0.171,west,0.8,Yes
2016/07/09,01:00,0.410,0.245,0.425,0.386,0.371,0.199,0.170,west-northwest,1.4,No
2016/07/09,01:10,0.407,0.246,0.424,0.389,0.373,0.196,0.171,north-northwest,2.2,No
2016/07/09,01:20,0.411,0.245,0.421,0.386,0.370,0.198,0.171,north-northwest,4.4,No
2016/07/09,01:30,0.410,0.244,0.426,0.389,0.371,0.199,0.170,north-northwest,3.1,Yes
2016/07/09,01:40,0.408,0.248,0.424,0.389,0.374,0.198,0.171,north,2.8,Yes
2016/07/09,01:50,0.412,0.246,0.422,0.386,0.370,0.199,0.171,north,0.8,Yes
2016/07/09,02:00,0.408,0.246,0.426,0.390,0.372,0.199,0.169,southeast,2.8,Yes
2016/07/09,02:10,0.408,0.245,0.423,0.388,0.372,0.198,0.171,east-southeast,1.6,Yes
2016/07/09,02:20,0.411,0.243,0.420,0.386,0.369,0.199,0.170,east-southeast,1.3,Yes
2016/07/09,02:30,0.408,0.245,0.424,0.388,0.373,0.196,0.170,southeast,0.7,Yes
2016/07/09,02:40,0.410,0.245,0.423,0.387,0.369,0.197,0.171,south-southeast,3.3,Yes
2016/07/09,02:50,0.411,0.243,0.424,0.385,0.370,0.198,0.170,south,3.1,Yes
2016/07/09,03:00,0.407,0.246,0.425,0.389,0.373,0.197,0.169,south-southeast,3.2,Yes
2016/07/09,03:10,0.410,0.246,0.423,0.385,0.370,0.198,0.171,south,2.4,Yes
2016/07/09,03:20,0.408,0.243,0.423,0.385,0.370,0.198,0.169,south,1.0,Yes
2016/07/09,03:30,0.407,0.245,0.425,0.389,0.373,0.198,0.170,east-southeast,1.4,No
2016/07/09,03:40,0.410,0.243,0.422,0.383,0.368,0.198,0.169,southeast,1.6,Yes
2016/07/09,03:50,0.409,0.244,0.424,0.388,0.372,0.198,0.168,south,1.6,Yes
2016/07/09,04:00,0.408,0.246,0.425,0.389,0.372,0.197,0.171,south-southeast,1.1,Yes
2016/07/09,04:10,0.410,0.244,0.421,0.385,0.369,0.198,0.169,east-southeast,0.8,Yes
2016/07/09,04:20,0.408,0.244,0.424,0.387,0.373,0.197,0.168,east-northeast,1.0,Yes
2016/07/09,04:30,0.408,0.245,0.424,0.389,0.372,0.197,0.171,north,0.5,Yes
2016/07/09,04:40,0.411,0.243,0.420,0.386,0.369,0.198,0.170,north-northwest,1.4,Yes
2016/07/09,04:50,0.408,0.246,0.425,0.388,0.374,0.198,0.171,northwest,1.8,Yes
2016/07/09,05:00,0.410,0.245,0.423,0.385,0.371,0.198,0.171,northwest,2.5,Yes
2016/07/09,05:10,0.410,0.243,0.422,0.386,0.370,0.199,0.169,north-northwest,2.3,Yes
2016/07/09,05:20,0.408,0.245,0.425,0.388,0.373,0.198,0.171,north-northwest,2.3,Yes
2016/07/09,05:30,0.412,0.246,0.422,0.384,0.369,0.199,0.171,north,1.3,Yes
2016/07/09,05:40,0.410,0.244,0.422,0.388,0.372,0.198,0.169,north-northeast,1.0,Yes
2016/07/09,05:50,0.408,0.245,0.425,0.388,0.372,0.198,0.172,north-northeast,0.8,Yes
2016/07/09,06:00,0.411,0.243,0.422,0.385,0.367,0.198,0.169,northeast,0.7,Yes
2016/07/09,06:10,0.408,0.246,0.424,0.390,0.373,0.198,0.170,north-northeast,0.6,Yes
2016/07/09,06:20,0.408,0.245,0.423,0.387,0.371,0.198,0.171,-,CALM,Yes
2016/07/09,06:30,0.411,0.243,0.419,0.385,0.367,0.198,0.169,northeast,0.5,Yes
2016/07/09,06:40,0.408,0.245,0.424,0.387,0.370,0.197,0.170,northeast,1.0,Yes
2016/07/09,06:50,0.407,0.243,0.422,0.385,0.370,0.197,0.170,west,1.2,Yes
2016/07/09,07:00,0.409,0.243,0.420,0.384,0.369,0.198,0.168,northeast,0.7,Yes
2016/07/09,07:10,0.405,0.245,0.423,0.387,0.372,0.196,0.168,-,CALM,Yes
2016/07/09,07:20,0.407,0.244,0.422,0.384,0.368,0.198,0.169,-,CALM,Yes
2016/07/09,07:30,0.411,0.242,0.420,0.382,0.366,0.197,0.168,-,CALM,Yes
2016/07/09,07:40,0.406,0.244,0.423,0.386,0.371,0.196,0.169,-,CALM,Yes
2016/07/09,07:50,0.406,0.243,0.421,0.386,0.372,0.197,0.169,-,CALM,Yes
2016/07/09,08:00,0.410,0.241,0.418,0.382,0.368,0.196,0.167,-,CALM,Yes
2016/07/09,08:10,0.408,0.243,0.420,0.384,0.367,0.196,0.168,-,CALM,Yes
2016/07/09,08:20,0.405,0.245,0.422,0.385,0.371,0.196,0.169,-,CALM,Yes
2016/07/09,08:30,0.410,0.243,0.420,0.382,0.369,0.197,0.168,-,CALM,Yes
2016/07/09,08:40,0.409,0.243,0.418,0.385,0.366,0.196,0.168,-,CALM,Yes
2016/07/09,08:50,0.405,0.245,0.422,0.386,0.368,0.196,0.169,south-southwest,1.4,Yes
2016/07/09,09:00,0.411,0.242,0.421,0.383,0.371,0.197,0.168,west,0.9,Yes
2016/07/09,09:10,0.409,0.243,0.417,0.381,0.367,0.197,0.169,south-southwest,1.6,Yes
2016/07/09,09:20,0.405,0.246,0.422,0.386,0.367,0.199,0.171,south-southwest,1.9,Yes
2016/07/09,09:30,0.410,0.245,0.422,0.383,0.371,0.198,0.170,south-southwest,3.4,Yes
2016/07/09,09:40,0.408,0.244,0.416,0.383,0.370,0.199,0.169,south-southwest,2.4,Yes
2016/07/09,09:50,0.403,0.245,0.421,0.386,0.366,0.198,0.170,south-southwest,2.9,Yes
2016/07/09,10:00,0.409,0.243,0.419,0.382,0.371,0.199,0.169,south-southwest,3.8,Yes
2016/07/09,10:10,0.408,0.242,0.417,0.381,0.369,0.197,0.169,south-southwest,4.8,Yes
2016/07/09,10:20,0.402,0.245,0.416,0.384,0.365,0.197,0.171,south,5.6,Yes
2016/07/09,10:30,0.407,0.244,0.419,0.381,0.368,0.197,0.169,south-southwest,5.3,Yes
2016/07/09,10:40,0.405,0.241,0.416,0.378,0.371,0.197,0.168,south-southwest,3.9,Yes
2016/07/09,10:50,0.403,0.243,0.413,0.381,0.369,0.195,0.169,south-southwest,4.1,Yes
2016/07/09,11:00,0.403,0.243,0.419,0.382,0.364,0.197,0.168,south-southwest,4.5,Yes
2016/07/09,11:10,0.405,0.242,0.418,0.379,0.363,0.196,0.167,south-southwest,3.7,Yes
2016/07/09,11:20,0.406,0.241,0.415,0.379,0.364,0.196,0.167,south-southwest,3.1,Yes
2016/07/09,11:30,0.401,0.239,0.411,0.378,0.371,0.193,0.167,south-southwest,3.5,Yes
2016/07/09,11:40,0.399,0.242,0.413,0.381,0.369,0.194,0.166,south-southwest,3.5,Yes
2016/07/09,11:50,0.406,0.242,0.418,0.381,0.365,0.195,0.166,south-southwest,5.6,Yes
2016/07/09,12:00,0.404,0.240,0.417,0.380,0.365,0.195,0.168,south-southwest,5.9,Yes
2016/07/09,12:10,0.402,0.240,0.415,0.377,0.363,0.195,0.167,south-southwest,6.6,Yes
2016/07/09,12:20,0.398,0.241,0.411,0.381,0.366,0.194,0.165,south-southwest,7.2,Yes
2016/07/09,12:30,0.405,0.242,0.415,0.381,0.370,0.194,0.166,south-southwest,8.6,Yes
2016/07/09,12:40,0.406,0.241,0.418,0.378,0.366,0.195,0.167,south-southwest,9.2,No
2016/07/09,12:50,0.401,0.240,0.413,0.378,0.364,0.194,0.166,south-southwest,8.4,No
2016/07/09,13:00,0.401,0.239,0.411,0.381,0.367,0.193,0.165,south-southwest,6.7,No
2016/07/09,13:10,0.406,0.240,0.417,0.382,0.369,0.194,0.165,south-southwest,7.3,No
2016/07/09,13:20,0.405,0.242,0.418,0.379,0.367,0.195,0.167,south-southwest,10.0,No
2016/07/09,13:30,0.401,0.241,0.414,0.377,0.364,0.195,0.166,south-southwest,10.5,Yes
2016/07/09,13:40,0.400,0.238,0.410,0.380,0.362,0.193,0.165,south-southwest,10.2,No
2016/07/09,13:50,0.405,0.239,0.416,0.383,0.366,0.193,0.164,south-southwest,9.9,Yes
2016/07/09,14:00,0.404,0.241,0.419,0.380,0.369,0.195,0.167,south-southwest,8.8,Yes
2016/07/09,14:10,0.402,0.242,0.415,0.379,0.367,0.197,0.166,south,9.0,Yes
2016/07/09,14:20,0.405,0.242,0.415,0.383,0.365,0.195,0.166,south-southwest,9.6,Yes
2016/07/09,14:30,0.406,0.241,0.418,0.381,0.370,0.194,0.167,south,8.0,Yes
2016/07/09,14:40,0.403,0.242,0.416,0.379,0.365,0.195,0.167,south,9.5,Yes
2016/07/09,14:50,0.406,0.240,0.416,0.381,0.365,0.195,0.167,south,8.3,Yes
2016/07/09,15:00,0.406,0.241,0.418,0.381,0.369,0.196,0.167,south,7.1,Yes
2016/07/09,15:10,0.401,0.242,0.414,0.379,0.365,0.194,0.166,south-southwest,6.2,Yes
2016/07/09,15:20,0.406,0.240,0.416,0.382,0.365,0.194,0.166,south,7.5,No
2016/07/09,15:30,0.405,0.241,0.417,0.378,0.367,0.195,0.167,south,10.1,Yes
2016/07/09,15:40,0.400,0.240,0.413,0.380,0.364,0.194,0.166,south,9.6,Yes
2016/07/09,15:50,0.406,0.240,0.416,0.379,0.367,0.194,0.165,south-southwest,7.5,Yes
2016/07/09,16:00,0.402,0.241,0.416,0.377,0.365,0.195,0.167,south-southwest,7.0,Yes
2016/07/09,16:10,0.400,0.239,0.411,0.380,0.362,0.193,0.164,south-southwest,7.5,Yes
2016/07/09,16:20,0.403,0.240,0.415,0.378,0.366,0.193,0.165,south-southwest,7.4,Yes
2016/07/09,16:30,0.400,0.240,0.413,0.375,0.361,0.194,0.164,south-southwest,6.2,Yes
2016/07/09,16:40,0.400,0.237,0.412,0.379,0.363,0.192,0.164,south-southwest,5.7,Yes
2016/07/09,16:50,0.404,0.240,0.415,0.376,0.367,0.192,0.165,south,4.7,Yes
2016/07/09,17:00,0.399,0.239,0.411,0.378,0.361,0.192,0.165,south,5.3,Yes
2016/07/09,17:10,0.400,0.238,0.409,0.377,0.365,0.193,0.164,south,5.9,Yes
2016/07/09,17:20,0.400,0.240,0.415,0.376,0.366,0.193,0.165,south,6.8,Yes
2016/07/09,17:30,0.398,0.240,0.410,0.379,0.362,0.192,0.163,south,6.7,Yes
2016/07/09,17:40,0.403,0.238,0.412,0.377,0.364,0.193,0.165,south,8.6,Yes
2016/07/09,17:50,0.399,0.239,0.414,0.374,0.363,0.193,0.164,south,8.7,No
2016/07/09,18:00,0.400,0.237,0.410,0.379,0.365,0.192,0.164,south,8.1,No
2016/07/09,18:10,0.403,0.240,0.414,0.377,0.365,0.192,0.165,south,7.5,No
2016/07/09,18:20,0.397,0.239,0.412,0.378,0.363,0.193,0.163,south,6.7,No
2016/07/09,18:30,0.401,0.238,0.411,0.378,0.365,0.193,0.165,south-southwest,7.5,No
2016/07/09,18:40,0.402,0.239,0.415,0.374,0.365,0.193,0.165,south-southwest,7.8,No
2016/07/09,18:50,0.398,0.238,0.412,0.380,0.362,0.191,0.163,south-southwest,7.3,No
2016/07/09,19:00,0.402,0.238,0.412,0.377,0.365,0.193,0.164,south-southwest,6.9,No
2016/07/09,19:10,0.398,0.240,0.413,0.376,0.363,0.192,0.164,south-southwest,5.9,No
2016/07/09,19:20,0.399,0.237,0.409,0.379,0.365,0.193,0.164,south-southwest,6.5,No
2016/07/09,19:30,0.402,0.239,0.415,0.376,0.365,0.193,0.164,south-southwest,5.3,No
2016/07/09,19:40,0.399,0.240,0.413,0.378,0.362,0.193,0.164,south-southwest,5.0,No
2016/07/09,19:50,0.403,0.238,0.413,0.377,0.367,0.192,0.164,south-southwest,3.6,No
2016/07/09,20:00,0.402,0.240,0.415,0.376,0.365,0.193,0.164,south-southwest,2.2,No
2016/07/09,20:10,0.398,0.239,0.412,0.379,0.362,0.192,0.164,south-southwest,1.9,No
2016/07/09,20:20,0.402,0.238,0.413,0.378,0.365,0.193,0.166,southwest,1.1,No
2016/07/09,20:30,0.401,0.241,0.414,0.376,0.364,0.193,0.164,west,1.4,No
2016/07/09,20:40,0.400,0.238,0.412,0.379,0.365,0.193,0.164,north-northwest,2.5,No
2016/07/09,20:50,0.403,0.240,0.414,0.376,0.366,0.193,0.165,north,3.2,No
2016/07/09,21:00,0.400,0.239,0.415,0.379,0.362,0.193,0.164,north,4.0,No
2016/07/09,21:10,0.401,0.239,0.413,0.378,0.368,0.194,0.165,north-northeast,3.9,No
2016/07/09,21:20,0.403,0.241,0.415,0.376,0.365,0.193,0.164,north-northeast,3.1,No
2016/07/09,21:30,0.400,0.239,0.412,0.381,0.365,0.193,0.166,north-northeast,2.8,No
2016/07/09,21:40,0.405,0.240,0.414,0.377,0.366,0.195,0.166,north-northeast,3.4,No
2016/07/09,21:50,0.401,0.239,0.416,0.378,0.364,0.193,0.165,north,3.9,No
2016/07/09,22:00,0.400,0.240,0.411,0.379,0.367,0.194,0.165,north,3.4,No
2016/07/09,22:10,0.403,0.241,0.416,0.376,0.364,0.194,0.165,north,3.3,No
2016/07/09,22:20,0.400,0.240,0.414,0.380,0.366,0.193,0.164,north,3.6,No
2016/07/09,22:30,0.404,0.241,0.413,0.377,0.365,0.194,0.164,north,4.5,No
2016/07/09,22:40,0.402,0.240,0.415,0.378,0.364,0.194,0.165,north,4.0,No
2016/07/09,22:50,0.402,0.241,0.412,0.380,0.368,0.194,0.166,north-northwest,4.1,No
2016/07/09,23:00,0.403,0.241,0.416,0.378,0.364,0.194,0.165,north,3.8,No
2016/07/09,23:10,0.399,0.240,0.415,0.380,0.366,0.195,0.166,north,4.2,No
2016/07/09,23:20,0.404,0.241,0.414,0.377,0.363,0.193,0.165,north,5.0,No
2016/07/09,23:30,0.403,0.239,0.417,0.381,0.365,0.193,0.166,north,3.7,No
2016/07/09,23:40,0.401,0.240,0.413,0.379,0.367,0.194,0.164,north,3.6,No
2016/07/09,23:50,0.403,0.240,0.416,0.379,0.363,0.194,0.166,north,3.1,No
